This is the latest recevied weather packets stored in our database for station/object KB4RFE. If no packets are shown the sender has not sent any weather packets the latest 10 day(s).
| Time | Temp. | Humidity | Pressure | Rain* | Wind** | Luminosity | Snow |
|---|---|---|---|---|---|---|---|
| 1788556846 | 30.56° C | 79% | 1017.7 hPa | 0 mm | - | 57 W/m² | - |
| 1788556545 | 30.56° C | 80% | 1017.8 hPa | 0 mm | - | 91 W/m² | - |
| 1788556241 | 30.56° C | 79% | 1017.8 hPa | 0 mm | - | 109 W/m² | - |
| 1788555940 | 31.11° C | 78% | 1017.6 hPa | 0 mm | - | 129 W/m² | - |
| 1788555637 | 31.11° C | 76% | 1017.8 hPa | 0 mm | - | 368 W/m² | - |
| 1788555337 | 31.11° C | 76% | 1018.1 hPa | 0 mm | - | 469 W/m² | - |
| 1788555033 | 31.11° C | 78% | 1017.9 hPa | 0 mm | - | 472 W/m² | - |
| 1788554729 | 31.11° C | 74% | 1018 hPa | 0 mm | - | 494 W/m² | - |
| 1788554425 | 31.67° C | 74% | 1018 hPa | 0 mm | - | 509 W/m² | - |
| 1788554121 | 31.67° C | 74% | 1017.9 hPa | 0 mm | - | 526 W/m² | - |
| 1788553817 | 31.67° C | 75% | 1018.1 hPa | 0 mm | - | 541 W/m² | - |
| 1788553513 | 31.67° C | 73% | 1018.1 hPa | 0 mm | - | 556 W/m² | - |
| 1788553209 | 31.67° C | 73% | 1018.4 hPa | 0 mm | - | 566 W/m² | - |
| 1788552903 | 31.67° C | 74% | 1018.4 hPa | 0 mm | - | 576 W/m² | - |
| 1788552599 | 31.67° C | 73% | 1018.4 hPa | 0 mm | - | 586 W/m² | - |
| 1788552297 | 31.67° C | 73% | 1018.5 hPa | 0 mm | - | 594 W/m² | - |
| 1788551992 | 31.67° C | 76% | 1018.5 hPa | 0 mm | - | 601 W/m² | - |
| 1788551691 | 31.67° C | 76% | 1018.5 hPa | 0 mm | - | 609 W/m² | - |
| 1788551390 | 31.11° C | 76% | 1018.6 hPa | 0 mm | - | 616 W/m² | - |
| 1788551085 | 31.67° C | 77% | 1018.5 hPa | 0 mm | - | 621 W/m² | - |
| 1788550780 | 31.67° C | 72% | 1018.7 hPa | 0 mm | - | 629 W/m² | - |
| 1788550475 | 31.67° C | 75% | 1018.8 hPa | 0 mm | - | 643 W/m² | - |
| 1788550171 | 31.67° C | 75% | 1018.7 hPa | 0 mm | - | 665 W/m² | - |
| 1788549866 | 31.11° C | 76% | 1018.8 hPa | 0 mm | - | 692 W/m² | - |
| 1788549562 | 31.11° C | 77% | 1018.9 hPa | 0 mm | - | 812 W/m² | - |
* Rain latest hour (hover to see other rain measurements)
** Current wind speed in m/s (hover to see current wind gust speed)